Location: Orange Harbor Mobile Home Park
(26.6923°N, 81.7937°W)
Time: 21:49:56
(UTC+00:00)

GPS 2-18 Rocket1 - Pass Details

Date: 19 September 2020
Orbit: 458 x 515 km, 20.9° (Epoch: 24 October)

Event Time Altitude Azimuth Distance (km) Brightness Sun altitude
Exits shadow 10:09:43 24° 226° (SW) 1,070 4.3 -15.3°
Maximum altitude 10:11:22 34° 180° (S) 831 4.1 -14.9°
Drops below altitude 10° 10:15:00 10° 114° (ESE) 1,714 6.7 -14.1°
Sets 10:17:23 0° 105° (ESE) 2,604 8.1 -13.6°
